owner,sensor,date,latitude,longitude,vertical_datum,sea_water_practical_salinity,qcFlag 
SCCF RECON,ioos:station:SCCF:13:1,2012-06-01T00:00:00Z,26.5255,-82.0032,2.272,29.84,1111122 
SCCF RECON,ioos:station:SCCF:13:1,2012-06-01T01:00:00Z,26.5255,-82.0032,2.35,29.98,1111122 
SCCF RECON,ioos:station:SCCF:13:1,2012-06-01T02:00:00Z,26.5255,-82.0032,2.41,31.83,1111122 
SCCF RECON,ioos:station:SCCF:13:1,2012-06-01T03:00:00Z,26.5255,-82.0032,2.49,32.03,1111122 
SCCF RECON,ioos:station:SCCF:13:1,2012-06-01T04:00:00Z,26.5255,-82.0032,2.53,32.59,1111122 
SCCF RECON,ioos:station:SCCF:13:1,2012-06-01T05:00:00Z,26.5255,-82.0032,2.51,33.83,1111122 
SCCF RECON,ioos:station:SCCF:13:1,2012-06-01T06:00:00Z,26.5255,-82.0032,2.42,34.4,1111122 
SCCF RECON,ioos:station:SCCF:13:1,2012-06-01T07:00:00Z,26.5255,-82.0032,2.352,34.35,1111122 
SCCF RECON,ioos:station:SCCF:13:1,2012-06-01T08:00:00Z,26.5255,-82.0032,2.3,32.93,1111122 
SCCF RECON,ioos:station:SCCF:13:1,2012-06-01T09:00:00Z,26.5255,-82.0032,2.3,31.47,1111122 
SCCF RECON,ioos:station:SCCF:13:1,2012-06-01T10:00:00Z,26.5255,-82.0032,2.41,30.35,1111122 
SCCF RECON,ioos:station:SCCF:13:1,2012-06-01T11:00:00Z,26.5255,-82.0032,2.47,31.63,1111122 
SCCF RECON,ioos:station:SCCF:13:1,2012-06-01T12:00:00Z,26.5255,-82.0032,2.53,33.44,1111122 
SCCF RECON,ioos:station:SCCF:13:1,2012-06-01T13:00:00Z,26.5255,-82.0032,2.61,33.67,1111122 
SCCF RECON,ioos:station:SCCF:13:1,2012-06-01T14:00:00Z,26.5255,-82.0032,2.68,34.7,1111122 
SCCF RECON,ioos:station:SCCF:13:1,2012-06-01T15:00:00Z,26.5255,-82.0032,2.729,35.25,1111122 
SCCF RECON,ioos:station:SCCF:13:1,2012-06-01T16:00:00Z,26.5255,-82.0032,2.73,35.42,1111122 
SCCF RECON,ioos:station:SCCF:13:1,2012-06-01T17:00:00Z,26.5255,-82.0032,2.669,35.52,1111122 
SCCF RECON,ioos:station:SCCF:13:1,2012-06-01T18:00:00Z,26.5255,-82.0032,2.55,35.12,1111122 
SCCF RECON,ioos:station:SCCF:13:1,2012-06-01T19:00:00Z,26.5255,-82.0032,2.486,35.46,1111122 
SCCF RECON,ioos:station:SCCF:13:1,2012-06-01T20:00:00Z,26.5255,-82.0032,2.393,35.26,1111122 
SCCF RECON,ioos:station:SCCF:13:1,2012-06-01T21:00:00Z,26.5255,-82.0032,2.307,34.91,1111122 
SCCF RECON,ioos:station:SCCF:13:1,2012-06-01T22:00:00Z,26.5255,-82.0032,2.219,33.66,1111122 
SCCF RECON,ioos:station:SCCF:13:1,2012-06-01T23:00:00Z,26.5255,-82.0032,2.202,32.57,1111122 
SCCF RECON,ioos:station:SCCF:13:1,2012-06-02T00:00:00Z,26.5255,-82.0032,2.24,31.82,1111122 
SCCF RECON,ioos:station:SCCF:13:1,2012-06-02T01:00:00Z,26.5255,-82.0032,2.4,31.56,1111122 
SCCF RECON,ioos:station:SCCF:13:1,2012-06-02T02:00:00Z,26.5255,-82.0032,2.45,31.81,1111122 
SCCF RECON,ioos:station:SCCF:13:1,2012-06-02T03:00:00Z,26.5255,-82.0032,2.52,33.13,1111122 
SCCF RECON,ioos:station:SCCF:13:1,2012-06-02T04:00:00Z,26.5255,-82.0032,2.56,33.52,1111122 
SCCF RECON,ioos:station:SCCF:13:1,2012-06-02T05:00:00Z,26.5255,-82.0032,2.58,34.06,1111122 
SCCF RECON,ioos:station:SCCF:13:1,2012-06-02T06:00:00Z,26.5255,-82.0032,2.58,34.89,1111122 
SCCF RECON,ioos:station:SCCF:13:1,2012-06-02T07:00:00Z,26.5255,-82.0032,2.47,34.97,1111122 
SCCF RECON,ioos:station:SCCF:13:1,2012-06-02T08:00:00Z,26.5255,-82.0032,2.45,34.86,1111122 
SCCF RECON,ioos:station:SCCF:13:1,2012-06-02T09:00:00Z,26.5255,-82.0032,2.41,34.14,1111122 
SCCF RECON,ioos:station:SCCF:13:1,2012-06-02T10:00:00Z,26.5255,-82.0032,2.39,33.0,1111122 
SCCF RECON,ioos:station:SCCF:13:1,2012-06-02T11:00:00Z,26.5255,-82.0032,2.44,32.28,1111122 
SCCF RECON,ioos:station:SCCF:13:1,2012-06-02T12:00:00Z,26.5255,-82.0032,2.54,32.68,1111122 
SCCF RECON,ioos:station:SCCF:13:1,2012-06-02T13:00:00Z,26.5255,-82.0032,2.64,33.67,1111122 
SCCF RECON,ioos:station:SCCF:13:1,2012-06-02T14:00:00Z,26.5255,-82.0032,2.72,34.49,1111122 
SCCF RECON,ioos:station:SCCF:13:1,2012-06-02T15:00:00Z,26.5255,-82.0032,2.769,35.2,1111122 
SCCF RECON,ioos:station:SCCF:13:1,2012-06-02T16:00:00Z,26.5255,-82.0032,2.78,35.57,1111122 
SCCF RECON,ioos:station:SCCF:13:1,2012-06-02T17:00:00Z,26.5255,-82.0032,2.73,35.89,1111122 
SCCF RECON,ioos:station:SCCF:13:1,2012-06-02T18:00:00Z,26.5255,-82.0032,2.6,35.75,1111122 
SCCF RECON,ioos:station:SCCF:13:1,2012-06-02T19:00:00Z,26.5255,-82.0032,2.482,35.59,1111122 
SCCF RECON,ioos:station:SCCF:13:1,2012-06-02T20:00:00Z,26.5255,-82.0032,2.384,35.03,1111122 
SCCF RECON,ioos:station:SCCF:13:1,2012-06-02T21:00:00Z,26.5255,-82.0032,2.284,34.59,1111122 
SCCF RECON,ioos:station:SCCF:13:1,2012-06-02T22:00:00Z,26.5255,-82.0032,2.182,33.09,1111122 
SCCF RECON,ioos:station:SCCF:13:1,2012-06-02T23:00:00Z,26.5255,-82.0032,2.1,31.76,1111122 
SCCF RECON,ioos:station:SCCF:13:1,2012-06-03T00:00:00Z,26.5255,-82.0032,2.057,30.5,1111122 
SCCF RECON,ioos:station:SCCF:13:1,2012-06-03T01:00:00Z,26.5255,-82.0032,2.126,29.41,1111122 
SCCF RECON,ioos:station:SCCF:13:1,2012-06-03T02:00:00Z,26.5255,-82.0032,2.25,28.83,1111122 
SCCF RECON,ioos:station:SCCF:13:1,2012-06-03T03:00:00Z,26.5255,-82.0032,2.34,28.66,1111122 
SCCF RECON,ioos:station:SCCF:13:1,2012-06-03T04:00:00Z,26.5255,-82.0032,2.41,30.97,1111122 
SCCF RECON,ioos:station:SCCF:13:1,2012-06-03T05:00:00Z,26.5255,-82.0032,2.47,31.67,1111122 
SCCF RECON,ioos:station:SCCF:13:1,2012-06-03T06:00:00Z,26.5255,-82.0032,2.49,33.2,1111122 
SCCF RECON,ioos:station:SCCF:13:1,2012-06-03T07:00:00Z,26.5255,-82.0032,2.46,34.38,1111122 
SCCF RECON,ioos:station:SCCF:13:1,2012-06-03T08:00:00Z,26.5255,-82.0032,2.405,34.63,1111122 
SCCF RECON,ioos:station:SCCF:13:1,2012-06-03T09:00:00Z,26.5255,-82.0032,2.383,35.02,1111122 
SCCF RECON,ioos:station:SCCF:13:1,2012-06-03T10:00:00Z,26.5255,-82.0032,2.363,34.88,1111122 
SCCF RECON,ioos:station:SCCF:13:1,2012-06-03T11:00:00Z,26.5255,-82.0032,2.34,32.54,1111122 
SCCF RECON,ioos:station:SCCF:13:1,2012-06-03T12:00:00Z,26.5255,-82.0032,2.408,31.55,1111122 
SCCF RECON,ioos:station:SCCF:13:1,2012-06-03T13:00:00Z,26.5255,-82.0032,2.53,32.6,1111122 
SCCF RECON,ioos:station:SCCF:13:1,2012-06-03T14:00:00Z,26.5255,-82.0032,2.63,33.24,1111122 
SCCF RECON,ioos:station:SCCF:13:1,2012-06-03T15:00:00Z,26.5255,-82.0032,2.7,34.24,1111122 
SCCF RECON,ioos:station:SCCF:13:1,2012-06-03T16:00:00Z,26.5255,-82.0032,2.759,35.15,1111122 
SCCF RECON,ioos:station:SCCF:13:1,2012-06-03T17:00:00Z,26.5255,-82.0032,2.76,35.64,1111122 
SCCF RECON,ioos:station:SCCF:13:1,2012-06-03T18:00:00Z,26.5255,-82.0032,2.667,35.73,1111122 
SCCF RECON,ioos:station:SCCF:13:1,2012-06-03T19:00:00Z,26.5255,-82.0032,2.54,35.66,1111122 
SCCF RECON,ioos:station:SCCF:13:1,2012-06-03T20:00:00Z,26.5255,-82.0032,2.432,35.09,1111122 
SCCF RECON,ioos:station:SCCF:13:1,2012-06-03T21:00:00Z,26.5255,-82.0032,2.331,34.99,1111122 
SCCF RECON,ioos:station:SCCF:13:1,2012-06-03T22:00:00Z,26.5255,-82.0032,2.22,34.26,1111122 
SCCF RECON,ioos:station:SCCF:13:1,2012-06-03T23:00:00Z,26.5255,-82.0032,2.121,32.32,1111122 
SCCF RECON,ioos:station:SCCF:13:1,2012-06-04T00:00:00Z,26.5255,-82.0032,2.045,31.14,1111122 
SCCF RECON,ioos:station:SCCF:13:1,2012-06-04T01:00:00Z,26.5255,-82.0032,2.006,29.71,1111122 
SCCF RECON,ioos:station:SCCF:13:1,2012-06-04T02:00:00Z,26.5255,-82.0032,2.09,28.62,1111122 
SCCF RECON,ioos:station:SCCF:13:1,2012-06-04T03:00:00Z,26.5255,-82.0032,2.221,27.91,1111122 
SCCF RECON,ioos:station:SCCF:13:1,2012-06-04T04:00:00Z,26.5255,-82.0032,2.32,27.99,1111122 
SCCF RECON,ioos:station:SCCF:13:1,2012-06-04T05:00:00Z,26.5255,-82.0032,2.41,30.78,1111122 
SCCF RECON,ioos:station:SCCF:13:1,2012-06-04T06:00:00Z,26.5255,-82.0032,2.46,32.32,1111122 
SCCF RECON,ioos:station:SCCF:13:1,2012-06-04T07:00:00Z,26.5255,-82.0032,2.468,33.97,1111122 
SCCF RECON,ioos:station:SCCF:13:1,2012-06-04T08:00:00Z,26.5255,-82.0032,2.42,34.58,1111122 
SCCF RECON,ioos:station:SCCF:13:1,2012-06-04T09:00:00Z,26.5255,-82.0032,2.38,34.62,1111122 
SCCF RECON,ioos:station:SCCF:13:1,2012-06-04T10:00:00Z,26.5255,-82.0032,2.36,34.56,1111122 
SCCF RECON,ioos:station:SCCF:13:1,2012-06-04T11:00:00Z,26.5255,-82.0032,2.35,34.54,1111122 
SCCF RECON,ioos:station:SCCF:13:1,2012-06-04T12:00:00Z,26.5255,-82.0032,2.351,34.01,1111122 
SCCF RECON,ioos:station:SCCF:13:1,2012-06-04T13:00:00Z,26.5255,-82.0032,2.45,33.11,1111122 
SCCF RECON,ioos:station:SCCF:13:1,2012-06-04T14:00:00Z,26.5255,-82.0032,2.567,33.51,1111122 
SCCF RECON,ioos:station:SCCF:13:1,2012-06-04T15:00:00Z,26.5255,-82.0032,2.653,33.53,1111122 
SCCF RECON,ioos:station:SCCF:13:1,2012-06-04T16:00:00Z,26.5255,-82.0032,2.712,35.14,1111122 
SCCF RECON,ioos:station:SCCF:13:1,2012-06-04T17:00:00Z,26.5255,-82.0032,2.75,35.49,1111122 
SCCF RECON,ioos:station:SCCF:13:1,2012-06-04T18:00:00Z,26.5255,-82.0032,2.755,35.62,1111122 
SCCF RECON,ioos:station:SCCF:13:1,2012-06-04T19:00:00Z,26.5255,-82.0032,2.67,35.6,1111122 
SCCF RECON,ioos:station:SCCF:13:1,2012-06-04T20:00:00Z,26.5255,-82.0032,2.53,35.61,1111122 
SCCF RECON,ioos:station:SCCF:13:1,2012-06-04T21:00:00Z,26.5255,-82.0032,2.412,35.18,1111122 
SCCF RECON,ioos:station:SCCF:13:1,2012-06-04T22:00:00Z,26.5255,-82.0032,2.31,35.33,1111122 
SCCF RECON,ioos:station:SCCF:13:1,2012-06-04T23:00:00Z,26.5255,-82.0032,2.2,34.64,1111122 
SCCF RECON,ioos:station:SCCF:13:1,2012-06-05T00:00:00Z,26.5255,-82.0032,2.1,33.4,1111122 
SCCF RECON,ioos:station:SCCF:13:1,2012-06-05T01:00:00Z,26.5255,-82.0032,2.02,31.56,1111122 
SCCF RECON,ioos:station:SCCF:13:1,2012-06-05T02:00:00Z,26.5255,-82.0032,2.02,30.66,1111122 
SCCF RECON,ioos:station:SCCF:13:1,2012-06-05T03:00:00Z,26.5255,-82.0032,2.13,29.75,1111122 
SCCF RECON,ioos:station:SCCF:13:1,2012-06-05T04:00:00Z,26.5255,-82.0032,2.241,29.33,1111122 
SCCF RECON,ioos:station:SCCF:13:1,2012-06-05T05:00:00Z,26.5255,-82.0032,2.32,29.92,1111122 
SCCF RECON,ioos:station:SCCF:13:1,2012-06-05T06:00:00Z,26.5255,-82.0032,2.391,32.03,1111122 
SCCF RECON,ioos:station:SCCF:13:1,2012-06-05T07:00:00Z,26.5255,-82.0032,2.46,33.13,1111122 
SCCF RECON,ioos:station:SCCF:13:1,2012-06-05T08:00:00Z,26.5255,-82.0032,2.5,34.79,1111122 
SCCF RECON,ioos:station:SCCF:13:1,2012-06-05T09:00:00Z,26.5255,-82.0032,2.483,34.85,1111122 
SCCF RECON,ioos:station:SCCF:13:1,2012-06-05T10:00:00Z,26.5255,-82.0032,2.45,34.74,1111122 
SCCF RECON,ioos:station:SCCF:13:1,2012-06-05T11:00:00Z,26.5255,-82.0032,2.43,34.88,1111122 
SCCF RECON,ioos:station:SCCF:13:1,2012-06-05T12:00:00Z,26.5255,-82.0032,2.429,34.88,1111122 
SCCF RECON,ioos:station:SCCF:13:1,2012-06-05T13:00:00Z,26.5255,-82.0032,2.49,34.81,1111122 
SCCF RECON,ioos:station:SCCF:13:1,2012-06-05T14:00:00Z,26.5255,-82.0032,2.58,34.86,1111122 
SCCF RECON,ioos:station:SCCF:13:1,2012-06-05T15:00:00Z,26.5255,-82.0032,2.68,34.97,1111122 
SCCF RECON,ioos:station:SCCF:13:1,2012-06-05T16:00:00Z,26.5255,-82.0032,2.76,35.14,1111122 
SCCF RECON,ioos:station:SCCF:13:1,2012-06-05T17:00:00Z,26.5255,-82.0032,2.818,35.69,1111122 
SCCF RECON,ioos:station:SCCF:13:1,2012-06-05T18:00:00Z,26.5255,-82.0032,2.841,35.7,1111122 
SCCF RECON,ioos:station:SCCF:13:1,2012-06-05T19:00:00Z,26.5255,-82.0032,2.82,35.67,1111122 
SCCF RECON,ioos:station:SCCF:13:1,2012-06-05T20:00:00Z,26.5255,-82.0032,2.73,35.72,1111122 
SCCF RECON,ioos:station:SCCF:13:1,2012-06-05T21:00:00Z,26.5255,-82.0032,2.605,35.7,1111122 
SCCF RECON,ioos:station:SCCF:13:1,2012-06-05T22:00:00Z,26.5255,-82.0032,2.49,35.58,1111122 
SCCF RECON,ioos:station:SCCF:13:1,2012-06-05T23:00:00Z,26.5255,-82.0032,2.38,35.72,1111122 
SCCF RECON,ioos:station:SCCF:13:1,2012-06-06T00:00:00Z,26.5255,-82.0032,2.278,35.19,1111122 
SCCF RECON,ioos:station:SCCF:13:1,2012-06-06T01:00:00Z,26.5255,-82.0032,2.18,34.41,1111122 
SCCF RECON,ioos:station:SCCF:13:1,2012-06-06T02:00:00Z,26.5255,-82.0032,2.115,33.13,1111122 
SCCF RECON,ioos:station:SCCF:13:1,2012-06-06T03:00:00Z,26.5255,-82.0032,2.117,32.18,1111122 
SCCF RECON,ioos:station:SCCF:13:1,2012-06-06T04:00:00Z,26.5255,-82.0032,2.26,31.44,1111122 
SCCF RECON,ioos:station:SCCF:13:1,2012-06-06T05:00:00Z,26.5255,-82.0032,2.36,31.09,1111122 
SCCF RECON,ioos:station:SCCF:13:1,2012-06-06T06:00:00Z,26.5255,-82.0032,2.41,31.55,1111122 
SCCF RECON,ioos:station:SCCF:13:1,2012-06-06T07:00:00Z,26.5255,-82.0032,2.46,33.1,1111122 
SCCF RECON,ioos:station:SCCF:13:1,2012-06-06T08:00:00Z,26.5255,-82.0032,2.52,33.65,1111122 
SCCF RECON,ioos:station:SCCF:13:1,2012-06-06T09:00:00Z,26.5255,-82.0032,2.55,34.72,1111122 
SCCF RECON,ioos:station:SCCF:13:1,2012-06-06T10:00:00Z,26.5255,-82.0032,2.511,35.33,1111122 
SCCF RECON,ioos:station:SCCF:13:1,2012-06-06T11:00:00Z,26.5255,-82.0032,2.471,35.29,1111122 
SCCF RECON,ioos:station:SCCF:13:1,2012-06-06T12:00:00Z,26.5255,-82.0032,2.45,35.43,1111122 
SCCF RECON,ioos:station:SCCF:13:1,2012-06-06T13:00:00Z,26.5255,-82.0032,2.39,34.99,1111122 
SCCF RECON,ioos:station:SCCF:13:1,2012-06-06T14:00:00Z,26.5255,-82.0032,2.45,33.83,1111122 
SCCF RECON,ioos:station:SCCF:13:1,2012-06-06T15:00:00Z,26.5255,-82.0032,2.61,34.38,1111122 
SCCF RECON,ioos:station:SCCF:13:1,2012-06-06T16:00:00Z,26.5255,-82.0032,2.72,35.1,1111122 
SCCF RECON,ioos:station:SCCF:13:1,2012-06-06T17:00:00Z,26.5255,-82.0032,2.78,35.44,1111122 
SCCF RECON,ioos:station:SCCF:13:1,2012-06-06T18:00:00Z,26.5255,-82.0032,2.84,35.71,1111122 
SCCF RECON,ioos:station:SCCF:13:1,2012-06-06T19:00:00Z,26.5255,-82.0032,2.86,35.76,1111122 
SCCF RECON,ioos:station:SCCF:13:1,2012-06-06T20:00:00Z,26.5255,-82.0032,2.85,35.89,1111122 
SCCF RECON,ioos:station:SCCF:13:1,2012-06-06T21:00:00Z,26.5255,-82.0032,2.76,35.95,1111122 
SCCF RECON,ioos:station:SCCF:13:1,2012-06-06T22:00:00Z,26.5255,-82.0032,2.64,35.81,1111122 
SCCF RECON,ioos:station:SCCF:13:1,2012-06-06T23:00:00Z,26.5255,-82.0032,2.533,35.83,1111122 
SCCF RECON,ioos:station:SCCF:13:1,2012-06-07T00:00:00Z,26.5255,-82.0032,2.43,35.74,1111122 
SCCF RECON,ioos:station:SCCF:13:1,2012-06-07T01:00:00Z,26.5255,-82.0032,2.33,35.16,1111122 
SCCF RECON,ioos:station:SCCF:13:1,2012-06-07T02:00:00Z,26.5255,-82.0032,2.24,34.53,1111122 
SCCF RECON,ioos:station:SCCF:13:1,2012-06-07T03:00:00Z,26.5255,-82.0032,2.175,33.42,1111122 
SCCF RECON,ioos:station:SCCF:13:1,2012-06-07T04:00:00Z,26.5255,-82.0032,2.191,32.43,1111122 
SCCF RECON,ioos:station:SCCF:13:1,2012-06-07T05:00:00Z,26.5255,-82.0032,2.33,32.0,1111122 
SCCF RECON,ioos:station:SCCF:13:1,2012-06-07T06:00:00Z,26.5255,-82.0032,2.43,31.83,1111122 
SCCF RECON,ioos:station:SCCF:13:1,2012-06-07T07:00:00Z,26.5255,-82.0032,2.48,33.16,1111122 
SCCF RECON,ioos:station:SCCF:13:1,2012-06-07T08:00:00Z,26.5255,-82.0032,2.53,34.16,1111122 
SCCF RECON,ioos:station:SCCF:13:1,2012-06-07T09:00:00Z,26.5255,-82.0032,2.57,34.39,1111122 
SCCF RECON,ioos:station:SCCF:13:1,2012-06-07T10:00:00Z,26.5255,-82.0032,2.58,35.33,1111122 
SCCF RECON,ioos:station:SCCF:13:1,2012-06-07T11:00:00Z,26.5255,-82.0032,2.54,35.61,1111122 
SCCF RECON,ioos:station:SCCF:13:1,2012-06-07T12:00:00Z,26.5255,-82.0032,2.5,35.57,1111122 
SCCF RECON,ioos:station:SCCF:13:1,2012-06-07T13:00:00Z,26.5255,-82.0032,2.5,35.45,1111122 
SCCF RECON,ioos:station:SCCF:13:1,2012-06-07T14:00:00Z,26.5255,-82.0032,2.5,35.2,1111122 
SCCF RECON,ioos:station:SCCF:13:1,2012-06-07T15:00:00Z,26.5255,-82.0032,2.531,34.89,1111122 
SCCF RECON,ioos:station:SCCF:13:1,2012-06-07T16:00:00Z,26.5255,-82.0032,2.614,35.07,1111122 
SCCF RECON,ioos:station:SCCF:13:1,2012-06-07T17:00:00Z,26.5255,-82.0032,2.71,35.52,1111122 
SCCF RECON,ioos:station:SCCF:13:1,2012-06-07T18:00:00Z,26.5255,-82.0032,2.769,35.67,1111122 
SCCF RECON,ioos:station:SCCF:13:1,2012-06-07T19:00:00Z,26.5255,-82.0032,2.79,35.99,1111122 
SCCF RECON,ioos:station:SCCF:13:1,2012-06-07T20:00:00Z,26.5255,-82.0032,2.79,36.1,1111122 
SCCF RECON,ioos:station:SCCF:13:1,2012-06-07T21:00:00Z,26.5255,-82.0032,2.776,36.08,1111122 
SCCF RECON,ioos:station:SCCF:13:1,2012-06-07T22:00:00Z,26.5255,-82.0032,2.7,35.99,1111122 
SCCF RECON,ioos:station:SCCF:13:1,2012-06-07T23:00:00Z,26.5255,-82.0032,2.59,36.12,1111122 
SCCF RECON,ioos:station:SCCF:13:1,2012-06-08T00:00:00Z,26.5255,-82.0032,2.5,35.87,1111122 
SCCF RECON,ioos:station:SCCF:13:1,2012-06-08T01:00:00Z,26.5255,-82.0032,2.4,35.83,1111122 
SCCF RECON,ioos:station:SCCF:13:1,2012-06-08T02:00:00Z,26.5255,-82.0032,2.304,34.96,1111122 
SCCF RECON,ioos:station:SCCF:13:1,2012-06-08T03:00:00Z,26.5255,-82.0032,2.21,33.47,1111122 
SCCF RECON,ioos:station:SCCF:13:1,2012-06-08T04:00:00Z,26.5255,-82.0032,2.16,32.65,1111122 
SCCF RECON,ioos:station:SCCF:13:1,2012-06-08T05:00:00Z,26.5255,-82.0032,2.22,31.82,1111122 
SCCF RECON,ioos:station:SCCF:13:1,2012-06-08T06:00:00Z,26.5255,-82.0032,2.34,31.38,1111122 
SCCF RECON,ioos:station:SCCF:13:1,2012-06-08T07:00:00Z,26.5255,-82.0032,2.4,31.34,1111122 
SCCF RECON,ioos:station:SCCF:13:1,2012-06-08T08:00:00Z,26.5255,-82.0032,2.43,31.83,1111122 
SCCF RECON,ioos:station:SCCF:13:1,2012-06-08T09:00:00Z,26.5255,-82.0032,2.46,33.24,1111122 
SCCF RECON,ioos:station:SCCF:13:1,2012-06-08T10:00:00Z,26.5255,-82.0032,2.485,33.47,1111122 
SCCF RECON,ioos:station:SCCF:13:1,2012-06-08T11:00:00Z,26.5255,-82.0032,2.5,34.48,1111122 
SCCF RECON,ioos:station:SCCF:13:1,2012-06-08T12:00:00Z,26.5255,-82.0032,2.49,35.13,1111122 
SCCF RECON,ioos:station:SCCF:13:1,2012-06-08T13:00:00Z,26.5255,-82.0032,2.47,35.64,1111122 
SCCF RECON,ioos:station:SCCF:13:1,2012-06-08T14:00:00Z,26.5255,-82.0032,2.438,35.45,1111122 
SCCF RECON,ioos:station:SCCF:13:1,2012-06-08T15:00:00Z,26.5255,-82.0032,2.399,34.21,1111122 
SCCF RECON,ioos:station:SCCF:13:1,2012-06-08T16:00:00Z,26.5255,-82.0032,2.39,33.39,1111122 
SCCF RECON,ioos:station:SCCF:13:1,2012-06-08T17:00:00Z,26.5255,-82.0032,2.497,33.68,1111122 
SCCF RECON,ioos:station:SCCF:13:1,2012-06-08T18:00:00Z,26.5255,-82.0032,2.594,34.43,1111122 
SCCF RECON,ioos:station:SCCF:13:1,2012-06-08T19:00:00Z,26.5255,-82.0032,2.649,34.64,1111122 
SCCF RECON,ioos:station:SCCF:13:1,2012-06-08T20:00:00Z,26.5255,-82.0032,2.68,35.57,1111122 
SCCF RECON,ioos:station:SCCF:13:1,2012-06-08T21:00:00Z,26.5255,-82.0032,2.71,35.77,1111122 
SCCF RECON,ioos:station:SCCF:13:1,2012-06-08T22:00:00Z,26.5255,-82.0032,2.702,36.06,1111122 
SCCF RECON,ioos:station:SCCF:13:1,2012-06-08T23:00:00Z,26.5255,-82.0032,2.62,36.01,1111122 
SCCF RECON,ioos:station:SCCF:13:1,2012-06-09T00:00:00Z,26.5255,-82.0032,2.493,36.03,1111122 
SCCF RECON,ioos:station:SCCF:13:1,2012-06-09T01:00:00Z,26.5255,-82.0032,2.41,35.25,1111122 
SCCF RECON,ioos:station:SCCF:13:1,2012-06-09T02:00:00Z,26.5255,-82.0032,2.311,34.29,1111122 
SCCF RECON,ioos:station:SCCF:13:1,2012-06-09T03:00:00Z,26.5255,-82.0032,2.234,32.67,1111122 
SCCF RECON,ioos:station:SCCF:13:1,2012-06-09T04:00:00Z,26.5255,-82.0032,2.161,31.24,1111122 
SCCF RECON,ioos:station:SCCF:13:1,2012-06-09T05:00:00Z,26.5255,-82.0032,2.132,30.16,1111122 
SCCF RECON,ioos:station:SCCF:13:1,2012-06-09T06:00:00Z,26.5255,-82.0032,2.29,29.53,1111122 
SCCF RECON,ioos:station:SCCF:13:1,2012-06-09T07:00:00Z,26.5255,-82.0032,2.3,29.12,1111122 
SCCF RECON,ioos:station:SCCF:13:1,2012-06-09T08:00:00Z,26.5255,-82.0032,2.31,28.63,1111122 
SCCF RECON,ioos:station:SCCF:13:1,2012-06-09T09:00:00Z,26.5255,-82.0032,2.4,28.84,1111122 
SCCF RECON,ioos:station:SCCF:13:1,2012-06-09T10:00:00Z,26.5255,-82.0032,2.51,31.16,1111122 
SCCF RECON,ioos:station:SCCF:13:1,2012-06-09T11:00:00Z,26.5255,-82.0032,2.491,32.51,1111122 
SCCF RECON,ioos:station:SCCF:13:1,2012-06-09T12:00:00Z,26.5255,-82.0032,2.545,33.54,1111122 
SCCF RECON,ioos:station:SCCF:13:1,2012-06-09T13:00:00Z,26.5255,-82.0032,2.55,34.91,1111122 
SCCF RECON,ioos:station:SCCF:13:1,2012-06-09T14:00:00Z,26.5255,-82.0032,2.46,34.96,1111122 
SCCF RECON,ioos:station:SCCF:13:1,2012-06-09T15:00:00Z,26.5255,-82.0032,2.42,35.05,1111122 
SCCF RECON,ioos:station:SCCF:13:1,2012-06-09T16:00:00Z,26.5255,-82.0032,2.38,33.54,1111122 
SCCF RECON,ioos:station:SCCF:13:1,2012-06-09T17:00:00Z,26.5255,-82.0032,2.389,31.97,1111122 
SCCF RECON,ioos:station:SCCF:13:1,2012-06-09T18:00:00Z,26.5255,-82.0032,2.51,32.12,1111122 
SCCF RECON,ioos:station:SCCF:13:1,2012-06-09T19:00:00Z,26.5255,-82.0032,2.6,34.29,1111122 
SCCF RECON,ioos:station:SCCF:13:1,2012-06-09T20:00:00Z,26.5255,-82.0032,2.63,34.42,1111122 
SCCF RECON,ioos:station:SCCF:13:1,2012-06-09T21:00:00Z,26.5255,-82.0032,2.65,35.25,1111122 
SCCF RECON,ioos:station:SCCF:13:1,2012-06-09T22:00:00Z,26.5255,-82.0032,2.68,35.6,1111122 
SCCF RECON,ioos:station:SCCF:13:1,2012-06-09T23:00:00Z,26.5255,-82.0032,2.67,35.77,1111122 
SCCF RECON,ioos:station:SCCF:13:1,2012-06-10T00:00:00Z,26.5255,-82.0032,2.595,35.74,1111122 
SCCF RECON,ioos:station:SCCF:13:1,2012-06-10T01:00:00Z,26.5255,-82.0032,2.52,35.63,1111122 
SCCF RECON,ioos:station:SCCF:13:1,2012-06-10T02:00:00Z,26.5255,-82.0032,2.46,34.74,1111122 
SCCF RECON,ioos:station:SCCF:13:1,2012-06-10T03:00:00Z,26.5255,-82.0032,2.4,33.63,1111122 
SCCF RECON,ioos:station:SCCF:13:1,2012-06-10T04:00:00Z,26.5255,-82.0032,2.32,32.44,1111122 
SCCF RECON,ioos:station:SCCF:13:1,2012-06-10T05:00:00Z,26.5255,-82.0032,2.258,30.55,1111122 
SCCF RECON,ioos:station:SCCF:13:1,2012-06-10T06:00:00Z,26.5255,-82.0032,2.24,29.69,1111122 
SCCF RECON,ioos:station:SCCF:13:1,2012-06-10T07:00:00Z,26.5255,-82.0032,2.33,29.4,1111122 
SCCF RECON,ioos:station:SCCF:13:1,2012-06-10T08:00:00Z,26.5255,-82.0032,2.44,29.35,1111122 
SCCF RECON,ioos:station:SCCF:13:1,2012-06-10T09:00:00Z,26.5255,-82.0032,2.479,31.06,1111122 
SCCF RECON,ioos:station:SCCF:13:1,2012-06-10T10:00:00Z,26.5255,-82.0032,2.532,31.97,1111122 
SCCF RECON,ioos:station:SCCF:13:1,2012-06-10T11:00:00Z,26.5255,-82.0032,2.597,32.88,1111122 
SCCF RECON,ioos:station:SCCF:13:1,2012-06-10T12:00:00Z,26.5255,-82.0032,2.6,34.46,1111122 
SCCF RECON,ioos:station:SCCF:13:1,2012-06-10T13:00:00Z,26.5255,-82.0032,2.55,35.04,1111122 
SCCF RECON,ioos:station:SCCF:13:1,2012-06-10T14:00:00Z,26.5255,-82.0032,2.49,35.29,1111122 
SCCF RECON,ioos:station:SCCF:13:1,2012-06-10T15:00:00Z,26.5255,-82.0032,2.44,34.44,1111122 
SCCF RECON,ioos:station:SCCF:13:1,2012-06-10T16:00:00Z,26.5255,-82.0032,2.4,32.23,1111122 
SCCF RECON,ioos:station:SCCF:13:1,2012-06-10T17:00:00Z,26.5255,-82.0032,2.37,30.03,1111122 
SCCF RECON,ioos:station:SCCF:13:1,2012-06-10T18:00:00Z,26.5255,-82.0032,2.377,30.14,1111122 
SCCF RECON,ioos:station:SCCF:13:1,2012-06-10T19:00:00Z,26.5255,-82.0032,2.431,29.83,1111122 
SCCF RECON,ioos:station:SCCF:13:1,2012-06-10T20:00:00Z,26.5255,-82.0032,2.49,30.73,1111122 
SCCF RECON,ioos:station:SCCF:13:1,2012-06-10T21:00:00Z,26.5255,-82.0032,2.54,31.9,1111122 
SCCF RECON,ioos:station:SCCF:13:1,2012-06-10T22:00:00Z,26.5255,-82.0032,2.58,33.33,1111122 
SCCF RECON,ioos:station:SCCF:13:1,2012-06-10T23:00:00Z,26.5255,-82.0032,2.6,33.69,1111122 
SCCF RECON,ioos:station:SCCF:13:1,2012-06-11T00:00:00Z,26.5255,-82.0032,2.59,34.48,1111122 
SCCF RECON,ioos:station:SCCF:13:1,2012-06-11T01:00:00Z,26.5255,-82.0032,2.62,34.92,1111122 
SCCF RECON,ioos:station:SCCF:13:1,2012-06-11T02:00:00Z,26.5255,-82.0032,2.523,35.1,1111122 
SCCF RECON,ioos:station:SCCF:13:1,2012-06-11T03:00:00Z,26.5255,-82.0032,2.431,33.53,1111122 
SCCF RECON,ioos:station:SCCF:13:1,2012-06-11T04:00:00Z,26.5255,-82.0032,2.38,31.71,1111122 
SCCF RECON,ioos:station:SCCF:13:1,2012-06-11T05:00:00Z,26.5255,-82.0032,2.325,30.8,1111122 
SCCF RECON,ioos:station:SCCF:13:1,2012-06-11T06:00:00Z,26.5255,-82.0032,2.261,29.51,1111122 
SCCF RECON,ioos:station:SCCF:13:1,2012-06-11T07:00:00Z,26.5255,-82.0032,2.27,28.19,1111122 
SCCF RECON,ioos:station:SCCF:13:1,2012-06-11T08:00:00Z,26.5255,-82.0032,2.36,27.69,1111122 
SCCF RECON,ioos:station:SCCF:13:1,2012-06-11T09:00:00Z,26.5255,-82.0032,2.46,28.7,1111122 
SCCF RECON,ioos:station:SCCF:13:1,2012-06-11T10:00:00Z,26.5255,-82.0032,2.509,31.4,1111122 
SCCF RECON,ioos:station:SCCF:13:1,2012-06-11T11:00:00Z,26.5255,-82.0032,2.551,32.43,1111122 
SCCF RECON,ioos:station:SCCF:13:1,2012-06-11T12:00:00Z,26.5255,-82.0032,2.6,33.39,1111122 
SCCF RECON,ioos:station:SCCF:13:1,2012-06-11T13:00:00Z,26.5255,-82.0032,2.62,34.88,1111122 
SCCF RECON,ioos:station:SCCF:13:1,2012-06-11T14:00:00Z,26.5255,-82.0032,2.57,35.19,1111122 
SCCF RECON,ioos:station:SCCF:13:1,2012-06-11T15:00:00Z,26.5255,-82.0032,2.508,35.42,1111122 
SCCF RECON,ioos:station:SCCF:13:1,2012-06-11T16:00:00Z,26.5255,-82.0032,2.43,33.95,1111122 
SCCF RECON,ioos:station:SCCF:13:1,2012-06-11T17:00:00Z,26.5255,-82.0032,2.37,31.68,1111122 
SCCF RECON,ioos:station:SCCF:13:1,2012-06-11T18:00:00Z,26.5255,-82.0032,2.32,29.76,1111122 